• In Portugal
  • List of Countries
  • For 7 days
  • Water Temperature
  • Satellite Maps
  • Weather Map
  • Weather Widgets
  • user-avatar
    Login

    Hourly Weather Sofia

    Today, 24 September, Monday

    Time Temperature Precipitation Wind Pressure Humidity
    00:00 +20°C° 0 mm 1 mps 712 mmHg 61%
    01:00 +19°C° 0 mm 1 mps 712 mmHg 60%
    02:00 +18°C° 0 mm 2 mps 711 mmHg 57%
    03:00 +18°C° 0 mm 2 mps 711 mmHg 57%
    04:00 +18°C° 0 mm 2 mps 710 mmHg 57%
    05:00 +17°C° 0 mm 2 mps 710 mmHg 58%
    06:00 +18°C° 0 mm 2 mps 710 mmHg 55%
    07:00 +20°C° 0 mm 2 mps 710 mmHg 52%
    08:00 +21°C° 0 mm 2 mps 710 mmHg 48%
    09:00 +24°C° 0 mm 2 mps 710 mmHg 42%
    10:00 +27°C° 0 mm 3 mps 710 mmHg 37%
    11:00 +29°C° 0 mm 4 mps 710 mmHg 32%
    12:00 +29°C° 0 mm 4 mps 710 mmHg 33%
    13:00 +29°C° 0 mm 5 mps 710 mmHg 35%
    14:00 +29°C° 0 mm 5 mps 711 mmHg 36%
    15:00 +26°C° 0 mm 6 mps 711 mmHg 44%
    16:00 +21°C° 0 mm 6 mps 711 mmHg 53%
    17:00 +17°C° 0 mm 6 mps 712 mmHg 61%
    18:00 +16°C° 0 mm 5 mps 713 mmHg 64%
    19:00 +14°C° 0 mm 4 mps 713 mmHg 67%
    20:00 +12°C° 0 mm 3 mps 714 mmHg 70%
    21:00 +12°C° 0 mm 3 mps 715 mmHg 71%
    22:00 +11°C° 0 mm 3 mps 715 mmHg 72%
    23:00 +10°C° 0 mm 3 mps 716 mmHg 73%

    Tomorrow, 25 September, Tuesday

    Time Temperature Precipitation Wind Pressure Humidity
    00:00 +10°C° 0 mm 3 mps 716 mmHg 74%
    01:00 +9°C° 0 mm 3 mps 716 mmHg 76%
    02:00 +8°C° 0 mm 3 mps 717 mmHg 77%
    03:00 +8°C° 0 mm 3 mps 717 mmHg 79%
    04:00 +7°C° 0 mm 2 mps 717 mmHg 81%
    05:00 +6°C° 0 mm 2 mps 717 mmHg 83%
    06:00 +7°C° 0 mm 2 mps 718 mmHg 77%
    07:00 +8°C° 0 mm 3 mps 718 mmHg 72%
    08:00 +8°C° 0 mm 3 mps 718 mmHg 66%
    09:00 +10°C° 0 mm 3 mps 719 mmHg 56%
    10:00 +12°C° 0 mm 4 mps 719 mmHg 46%
    11:00 +14°C° 0 mm 4 mps 719 mmHg 36%
    12:00 +14°C° 0 mm 5 mps 719 mmHg 34%
    13:00 +15°C° 0 mm 5 mps 719 mmHg 32%
    14:00 +15°C° 0 mm 5 mps 718 mmHg 29%
    15:00 +15°C° 0 mm 5 mps 718 mmHg 30%
    16:00 +14°C° 0 mm 5 mps 718 mmHg 32%
    17:00 +13°C° 0 mm 5 mps 718 mmHg 33%
    18:00 +11°C° 0 mm 4 mps 719 mmHg 38%
    19:00 +9°C° 0 mm 3 mps 719 mmHg 44%
    20:00 +7°C° 0 mm 2 mps 720 mmHg 49%
    21:00 +7°C° 0 mm 2 mps 720 mmHg 52%
    22:00 +7°C° 0 mm 1 mps 721 mmHg 54%
    23:00 +6°C° 0 mm 1 mps 721 mmHg 57%

    Day after tomorrow, 26 September, Wednesday

    Time Temperature Precipitation Wind Pressure Humidity
    00:00 +6°C° 0 mm 1 mps 721 mmHg 59%
    01:00 +5°C° 0 mm 1 mps 721 mmHg 61%
    02:00 +5°C° 0 mm 1 mps 721 mmHg 63%
    03:00 +5°C° 0 mm 1 mps 721 mmHg 65%
    04:00 +4°C° 0 mm 1 mps 721 mmHg 66%
    05:00 +4°C° 0 mm 1 mps 722 mmHg 68%
    06:00 +5°C° 0 mm 1 mps 722 mmHg 62%
    07:00 +7°C° 0 mm 1 mps 722 mmHg 57%
    08:00 +8°C° 0 mm 1 mps 723 mmHg 52%
    09:00 +9°C° 0 mm 2 mps 723 mmHg 45%
    10:00 +12°C° 0 mm 2 mps 723 mmHg 39%
    11:00 +13°C° 0 mm 3 mps 723 mmHg 32%
    12:00 +13°C° 0 mm 3 mps 723 mmHg 31%
    13:00 +14°C° 0 mm 4 mps 722 mmHg 29%
    14:00 +14°C° 0 mm 4 mps 722 mmHg 27%
    15:00 +14°C° 0 mm 4 mps 721 mmHg 28%
    16:00 +13°C° 0 mm 4 mps 721 mmHg 30%
    17:00 +12°C° 0 mm 4 mps 721 mmHg 31%
    18:00 +10°C° 0 mm 3 mps 721 mmHg 38%
    19:00 +8°C° 0 mm 2 mps 721 mmHg 45%
    20:00 +7°C° 0 mm 1 mps 722 mmHg 51%
    21:00 +6°C° 0 mm 1 mps 722 mmHg 53%
    22:00 +6°C° 0 mm 1 mps 722 mmHg 55%
    23:00 +5°C° 0 mm 1 mps 722 mmHg 57%

    27 September, Thursday

    Time Temperature Precipitation Wind Pressure Humidity
    00:00 +5°C° 0 mm 1 mps 722 mmHg 57%
    01:00 +5°C° 0 mm 1 mps 722 mmHg 58%
    02:00 +5°C° 0 mm 1 mps 722 mmHg 58%
    03:00 +5°C° 0 mm 1 mps 721 mmHg 59%
    04:00 +4°C° 0 mm 1 mps 721 mmHg 60%
    05:00 +4°C° 0 mm 1 mps 721 mmHg 60%
    06:00 +6°C° 0 mm 1 mps 721 mmHg 55%
    07:00 +7°C° 0 mm 1 mps 721 mmHg 51%
    08:00 +9°C° 0 mm 1 mps 721 mmHg 46%
    09:00 +10°C° 0 mm 2 mps 721 mmHg 40%
    10:00 +12°C° 0 mm 3 mps 721 mmHg 34%
    11:00 +14°C° 0 mm 3 mps 721 mmHg 28%
    12:00 +15°C° 0 mm 4 mps 720 mmHg 26%
    13:00 +17°C° 0 mm 4 mps 719 mmHg 24%
    14:00 +17°C° 0 mm 4 mps 719 mmHg 23%
    15:00 +17°C° 0 mm 4 mps 718 mmHg 24%
    16:00 +15°C° 0 mm 4 mps 717 mmHg 26%
    17:00 +15°C° 0 mm 4 mps 717 mmHg 27%
    18:00 +12°C° 0 mm 3 mps 717 mmHg 33%
    19:00 +10°C° 0 mm 2 mps 717 mmHg 38%
    20:00 +7°C° 0 mm 2 mps 717 mmHg 44%
    21:00 +8°C° 0 mm 1 mps 717 mmHg 45%
    22:00 +8°C° 0 mm 1 mps 717 mmHg 45%
    23:00 +7°C° 0 mm 1 mps 717 mmHg 46%

    28 September, Friday

    Time Temperature Precipitation Wind Pressure Humidity
    00:00 +7°C° 0 mm 1 mps 716 mmHg 46%
    01:00 +7°C° 0 mm 1 mps 716 mmHg 45%
    02:00 +7°C° 0 mm 1 mps 716 mmHg 45%
    03:00 +7°C° 0 mm 1 mps 716 mmHg 46%
    04:00 +7°C° 0 mm 1 mps 715 mmHg 47%
    05:00 +7°C° 0 mm 1 mps 715 mmHg 47%
    06:00 +8°C° 0 mm 1 mps 715 mmHg 44%
    07:00 +9°C° 0 mm 1 mps 715 mmHg 42%
    08:00 +11°C° 0 mm 1 mps 715 mmHg 39%
    09:00 +13°C° 0 mm 2 mps 715 mmHg 35%
    10:00 +16°C° 0 mm 2 mps 715 mmHg 31%
    11:00 +18°C° 0 mm 3 mps 715 mmHg 27%
    12:00 +19°C° 0 mm 3 mps 714 mmHg 26%
    13:00 +20°C° 0 mm 3 mps 714 mmHg 24%
    14:00 +21°C° 0 mm 4 mps 713 mmHg 23%
    15:00 +20°C° 0 mm 3 mps 713 mmHg 26%
    16:00 +19°C° 0 mm 3 mps 713 mmHg 28%
    17:00 +19°C° 0 mm 3 mps 712 mmHg 30%
    18:00 +16°C° 0 mm 3 mps 712 mmHg 37%
    19:00 +14°C° 0 mm 2 mps 712 mmHg 43%
    20:00 +11°C° 0 mm 1 mps 712 mmHg 49%
    21:00 +11°C° 0 mm 1 mps 712 mmHg 51%
    22:00 +11°C° 0 mm 1 mps 712 mmHg 53%
    23:00 +10°C° 0 mm 1 mps 712 mmHg 54%

    29 September, Saturday

    Time Temperature Precipitation Wind Pressure Humidity
    00:00 +10°C° 0 mm 1 mps 712 mmHg 55%
    01:00 +10°C° 0 mm 1 mps 711 mmHg 56%
    02:00 +10°C° 0 mm 1 mps 711 mmHg 56%
    03:00 +9°C° 0 mm 1 mps 711 mmHg 57%
    04:00 +9°C° 0 mm 1 mps 711 mmHg 58%
    05:00 +9°C° 0 mm 1 mps 711 mmHg 58%
    06:00 +11°C° 0 mm 1 mps 711 mmHg 55%
    07:00 +12°C° 0 mm 1 mps 711 mmHg 52%
    08:00 +12°C° 0 mm 0 mps 711 mmHg 48%
    09:00 +16°C° 0 mm 1 mps 711 mmHg 44%
    10:00 +19°C° 0 mm 1 mps 712 mmHg 39%
    11:00 +21°C° 0 mm 1 mps 712 mmHg 34%
    12:00 +21°C° 0 mm 2 mps 712 mmHg 33%
    13:00 +23°C° 0 mm 2 mps 711 mmHg 32%
    14:00 +24°C° 0 mm 2 mps 711 mmHg 31%
    15:00 +23°C° 0 mm 2 mps 711 mmHg 33%
    16:00 +21°C° 0 mm 2 mps 711 mmHg 35%
    17:00 +21°C° 0 mm 2 mps 711 mmHg 37%
    18:00 +18°C° 0 mm 2 mps 711 mmHg 43%
    19:00 +16°C° 0 mm 1 mps 711 mmHg 49%
    20:00 +14°C° 0 mm 1 mps 711 mmHg 56%
    21:00 +13°C° 0 mm 1 mps 711 mmHg 58%
    22:00 +13°C° 0 mm 1 mps 712 mmHg 61%
    23:00 +12°C° 0 mm 1 mps 712 mmHg 63%
    Show more